{"data":{"norad_id":32276,"intl_designator":"2007-052B","name":"COSMOS 2432 (719)","alt_names":[],"object_type":"PAYLOAD","status":"ACTIVE","operator":null,"country":"CIS","launch_date":"2007-10-26","launch_site_code":"TYMSC","launch_vehicle":null,"mission":null,"orbit_class":"UNKNOWN","rcs_meters":3.1623,"size_class":null,"mass_kg":null,"dimensions":null,"purposes":["nav"],"wikipedia_slug":null,"has_3d_model":false,"image_url":null,"decayed_at":null,"tle_current":{"epoch":"2026-05-20T12:51:43.132896Z","epoch_age_seconds":457223,"freshness":"STALE","line1":"1 32276U 07052B   26140.53591589 -.00000037  00000+0  00000+0 0  9991","line2":"2 32276  65.6091 316.9910 0008143 336.0455 203.0511  2.13103103144498","mean_motion":2.13103103,"eccentricity":0.0008143,"inclination_deg":65.6091,"raan_deg":316.991,"arg_perigee_deg":336.0455,"mean_anomaly_deg":203.0511,"bstar":0,"rev_number":14449,"period_min":675.72925017427,"perigee_km":19109.028296876,"apogee_km":19150.570522112,"semimajor_km":25507.936409494,"source":"CELESTRAK","updated_at":"2026-05-25T13:38:23.888648Z"}}}